Regional Weather Roundup
Issued by NWS State College, PA

Home | Current Version | Previous Version | Graphics & Text | Print | Product List | Glossary On
Versions: 1 2 3 4 5 6 7 8 9 10 11 12 13 14 15 16 17 18 19 20 21 22 23 24 25 26 27 28 29 30 31 32 33 34 35 36 37 38 39 40 41 42 43 44 45 46 47 48 49 50
000
ASUS41 KCTP 012210
RWRCTP

REGIONAL WEATHER ROUNDUP
NATIONAL WEATHER SERVICE STATE COLLEGE PA
600 PM EDT TUE SEP 01 2015

Note: "fair" indicates few or no clouds below 12,000 feet with no
significant weather and/or obstructions to visibility.

* = STATION THAT DOES NOT REPORT PRECIPITATION /E.G. RAIN...SNOW...ETC/
    THUNDER OR FOG.

PAZ002>004-007>009-013>016-020>023-029>032-012300-
WESTERN PENNSYLVANIA

CITY           SKY/WX    TMP DP  RH WIND       PRES   REMARKS
ERIE           SUNNY     81  65  58 W5        30.07S
MEADVILLE      SUNNY     83  62  49 N3        30.09F
FRANKLIN*      SUNNY     82  66  57 CALM      30.11F
NEW CASTLE     FAIR      86  70  58 CALM      30.07F
BEAVER COUNTY  SUNNY     86  64  48 CALM      30.08S
BUTLER*        MOSUNNY   84  66  54 N3        30.09F
PITTSBURGH INT PTSUNNY   87  62  43 NW7       30.07F
PITTSBURGH     PTSUNNY   87  57  35 NW5       30.07S
INDIANA*       SUNNY     86  66  51 N6        30.11F
LATROBE        MOSUNNY   86  64  48 NW6       30.09S
WASHINGTON CO* SUNNY     86  63  45 NW6       30.09S
$$

PAZ004>006-010>012-017>019-024>028-033>037-041-042-045-046-049>053-012300-
CENTRAL PENNSYLVANIA

CITY           SKY/WX    TMP DP  RH WIND       PRES   REMARKS
BRADFORD       MOSUNNY   81  62  52 NW9       30.12F
DUBOIS         SUNNY     83  62  49 VRB7      30.10F
CLEARFIELD     SUNNY     83  63  50 NW6       30.09F
JOHNSTOWN      MOSUNNY   82  60  47 N10       30.13F
ALTOONA        MOSUNNY   86  62  44 N5        30.09S
STATE COLLEGE  MOSUNNY   84  64  51 NW7       30.07F
WILLIAMSPORT   MOSUNNY   85  66  53 SW5       30.02S
SELINSGROVE    SUNNY     84  66  54 N3        30.03S
FT INDIANTOWN  SUNNY     86  64  48 VRB3      30.03S
CAPITAL CITY   SUNNY     87  62  43 NW6       30.02F
HARRISBURG     MOSUNNY   87  65  47 NW5       30.01F
YORK           SUNNY     86  63  45 N5        30.03F
$$

PAZ038>040-043-044-047-048-054-055-060>062-067>071-012300-
EASTERN PENNSYLVANIA

CITY           SKY/WX    TMP DP  RH WIND       PRES   REMARKS
SCRANTON       SUNNY     86  61  42 NW5       30.04F
MOUNT POCONO   MOSUNNY   78  61  55 SE3       30.10S
ALLENTOWN      SUNNY     87  64  46 E5        30.02S
QUAKERTOWN*    CLEAR     84  66  54 E6        30.04S
READING        SUNNY     87  63  44 W6        30.01S
LANCASTER      SUNNY     86  62  44 NW6       30.02S
COATESVILLE    CLEAR     86  61  42 W6        30.04S
POTTSTOWN      MOSUNNY   86  63  45 NE3       30.03S
BLUE BELL      MOSUNNY   88  68  51 CALM      30.01R
DOYLESTOWN     SUNNY     85  63  47 N5        30.02S
WILLOW GROVE   NOT AVBL
NORTH PHILA    SUNNY     90  59  35 NE7       30.01S
PHILADELPHIA   MOSUNNY   92  60  34 N5        29.99S
$$



USA.gov is the U.S. government's official web portal to all federal, state and local government web resources and services.